Wind_Speed
10 15 20 21 23 22 21 20 19 21 22 22 25 27 28 29 29 29 31 31 27 26 26 25 27 28 29 29 30 28 25 25 27 26 27 20 18 17 13 12 10 9 12
8 18 21 18 16 15 16 17 17 19 20 20 23 25 27 28 28 29 28 26 25 26 26 27 26 26 28 29 30 30 28 25 25 27 27 22 17 16 15 13 11 10 9
16 18 11 13 13 16 19 19 21 21 20 20 21 23 25 27 29 30 29 26 25 27 28 29 29 28 29 28 29 29 29 26 24 23 26 23 18 16 14 14 12 11 10
12 10 9 13 17 20 19 20 19 20 19 18 19 23 28 34 34 32 30 29 28 27 28 30 30 30 30 29 29 29 28 27 23 20 21 24 20 16 15 13 12 13 12
9 10 13 17 20 19 18 17 19 19 23 27 28 29 32 33 34 34 33 32 30 28 27 28 29 29 29 29 29 29 28 26 25 21 20 22 21 18 15 13 12 11 14
12 12 15 19 21 20 17 15 19 22 26 28 28 25 28 32 35 34 34 34 32 31 31 30 31 32 30 29 28 28 29 27 26 22 22 21 22 19 17 14 13 12 13
14 17 19 21 20 20 22 26 27 28 26 27 23 26 38 39 39 35 34 33 35 36 33 34 33 33 30 28 28 27 28 29 26 25 25 23 22 21 20 16 14 13 14
18 20 22 21 21 25 26 26 26 28 31 34 30 35 40 40 38 36 34 33 33 35 38 39 33 34 32 28 28 30 28 29 29 25 25 25 21 21 20 21 19 19 20
23 27 26 28 32 34 34 34 36 38 39 40 40 42 42 42 44 42 39 38 36 36 38 42 40 34 36 34 32 29 30 30 30 30 26 25 22 21 19 20 20 21 20
30 31 34 36 40 45 44 43 42 43 41 43 46 45 43 44 46 48 49 46 40 40 41 42 44 41 39 38 37 36 33 32 31 33 30 26 24 22 21 20 20 21 20
34 39 42 44 46 47 47 44 43 43 48 52 54 53 52 50 55 55 49 46 44 44 44 42 45 45 43 41 40 39 38 35 32 34 35 30 24 26 22 21 19 21 19
42 44 45 45 46 46 45 45 50 55 55 57 58 53 51 55 60 54 56 57 52 50 48 47 45 46 48 47 45 43 40 37 35 35 34 34 27 27 25 23 21 19 17
47 48 49 50 50 49 50 56 62 63 63 63 60 59 65 68 63 58 57 59 61 58 57 56 51 51 52 53 52 49 44 40 38 34 35 34 31 27 28 26 23 18 17
48 46 51 54 54 55 59 62 63 63 65 66 67 70 69 70 71 70 69 67 65 63 62 60 58 56 52 53 57 55 51 47 40 37 35 37 33 30 28 29 26 20 18
48 54 58 57 59 58 60 64 66 68 70 71 72 72 74 75 75 74 74 71 69 67 65 64 61 56 53 53 58 60 57 50 46 40 39 38 36 33 28 29 26 22 18
56 59 61 63 65 65 65 67 70 73 76 78 77 77 80 80 79 77 77 74 71 70 69 67 64 62 60 57 57 59 58 51 47 44 39 38 36 35 30 28 27 23 19
61 64 64 65 66 68 70 73 76 78 78 79 80 82 81 81 80 79 78 74 72 72 70 68 67 65 63 61 59 60 61 55 48 44 40 36 34 36 30 27 27 23 22
66 67 67 69 73 76 79 79 79 81 82 81 80 80 80 77 76 76 71 65 64 64 64 63 62 62 61 61 62 62 62 57 51 46 41 39 36 34 30 29 26 22 22
69 72 76 80 78 78 80 82 84 83 82 81 80 79 76 73 69 64 59 55 53 52 49 46 43 41 42 45 50 57 59 55 54 51 48 49 35 36 33 31 34 31 24
75 75 76 80 81 82 83 84 84 82 81 79 77 73 67 62 57 53 44 40 39 39 38 36 36 35 35 33 35 44 52 52 57 57 59 50 48 46 36 27 32 25 23
77 79 80 82 83 83 83 84 82 80 76 69 64 59 56 50 44 37 33 33 32 32 33 31 31 30 30 29 31 32 38 46 58 61 60 54 55 39 39 31 33 28 24
78 79 80 81 82 82 81 79 76 70 62 56 51 45 39 35 33 32 30 29 29 29 30 28 28 27 26 25 27 28 30 38 55 61 64 60 57 48 38 36 35 32 27
80 79 79 80 80 78 74 69 62 55 48 42 37 33 31 31 30 30 29 28 26 25 28 26 26 25 23 22 22 23 26 34 48 58 64 62 57 50 48 33 40 33 27
82 80 79 76 70 64 57 49 42 36 33 31 29 28 29 28 30 31 28 28 27 24 24 24 23 23 22 20 19 21 23 28 41 54 63 68 56 52 47 46 42 39 31
78 75 68 60 53 46 37 30 28 27 26 26 26 27 28 28 29 29 29 27 25 24 23 23 21 22 22 21 20 18 20 25 33 48 61 70 61 57 52 47 47 43 34
60 55 49 41 34 28 25 24 24 23 23 24 26 26 27 27 27 27 27 26 24 23 22 22 21 20 19 22 22 21 20 23 27 43 59 70 64 60 59 52 44 37 42
Wind_Direction
301 313 306 307 304 306 303 309 315 314 316 326 331 333 331 327 323 318 319 312 301 302 298 298 299 298 299 304 308 309 302 303 314 323 328 322 317 319 319 316 307 287 275
307 294 298 298 299 302 308 308 311 317 324 329 331 331 331 332 330 327 321 318 303 303 303 302 300 296 296 298 304 307 306 300 306 313 323 324 315 313 317 317 312 301 288
262 279 282 290 300 316 323 324 320 315 314 330 334 339 341 342 338 335 333 324 312 302 301 301 299 295 292 293 298 303 307 305 301 303 313 317 316 307 308 304 304 292 289
259 268 283 304 317 318 318 311 306 307 317 328 336 343 342 341 341 338 333 329 325 315 309 307 304 299 292 290 291 296 304 306 300 292 302 312 311 307 307 299 297 294 283
265 279 302 317 316 309 303 303 303 316 325 331 331 333 335 338 335 334 333 329 326 320 315 312 311 303 298 288 287 290 297 302 300 290 292 302 306 308 297 294 301 298 289
253 281 298 312 316 303 300 308 317 321 317 320 323 328 337 338 333 330 325 324 323 321 317 315 316 311 305 289 282 286 290 296 299 293 285 295 303 299 302 290 285 288 291
276 286 298 310 308 309 298 294 297 301 315 317 313 315 324 329 327 322 317 319 319 316 314 311 313 313 309 303 283 279 284 289 295 298 284 283 292 299 293 293 281 282 281
277 288 294 292 286 283 288 292 294 296 303 309 309 311 316 320 319 318 312 313 316 312 309 307 309 306 301 304 291 279 278 281 288 291 289 280 280 293 296 291 289 289 290
276 281 284 285 281 288 292 295 296 298 300 302 305 306 310 313 318 316 310 309 302 297 299 299 301 298 298 293 296 288 283 277 280 283 286 279 272 278 288 294 290 293 296
278 280 283 284 286 291 294 298 301 305 309 311 309 306 306 306 312 313 309 306 297 291 288 290 293 294 293 291 292 288 283 282 274 277 277 279 269 267 273 289 292 295 293
286 288 289 288 287 289 292 295 297 301 305 306 308 305 302 303 307 310 306 303 298 293 290 286 284 286 285 285 284 285 283 284 272 270 276 271 271 264 265 278 293 294 283
285 289 295 295 295 293 292 293 298 302 303 305 305 302 302 303 305 304 305 305 298 293 288 286 281 278 279 279 279 278 279 277 277 264 267 272 267 265 262 266 280 291 275
289 292 295 295 294 293 292 292 294 299 299 299 301 303 301 305 304 302 300 300 299 295 292 289 282 278 273 272 272 272 271 272 270 267 256 263 265 264 262 261 266 280 273
290 293 295 296 296 293 291 293 295 296 298 302 302 301 303 303 303 302 300 299 297 295 291 287 283 279 273 266 267 268 267 266 263 262 253 259 260 256 263 260 259 266 270
287 290 293 294 295 297 296 297 299 301 302 302 301 301 301 299 299 299 298 297 296 293 290 286 282 278 272 267 263 262 262 262 262 255 248 250 257 262 247 254 252 256 263
290 292 294 296 300 298 298 299 300 300 300 300 300 299 298 299 298 298 297 296 294 291 287 283 279 274 268 261 254 255 257 256 254 254 250 244 248 252 245 246 243 250 256
296 295 296 298 297 298 299 299 299 299 299 299 299 299 299 298 298 296 296 296 294 291 287 281 275 269 264 259 253 248 248 244 240 240 241 234 242 245 244 236 240 245 251
295 297 297 296 297 297 297 298 298 298 299 299 298 298 297 298 297 297 297 294 289 287 284 280 276 271 266 257 248 244 243 241 230 224 228 226 232 234 240 237 227 233 248
295 294 294 295 296 297 298 298 297 298 298 297 296 297 298 298 297 295 293 290 286 284 283 282 280 275 269 260 253 247 240 234 223 213 217 219 227 238 236 241 224 235 241
294 295 296 296 296 296 296 296 296 296 296 296 297 297 296 294 292 291 289 286 285 286 287 286 284 280 273 267 257 244 241 228 219 210 213 214 215 227 230 230 221 225 230
295 295 295 295 295 294 294 294 295 295 295 295 294 292 289 289 289 288 286 289 291 289 287 287 286 284 280 270 258 251 241 226 215 210 209 211 215 218 223 221 218 211 221
294 294 295 295 295 296 296 296 295 294 293 290 289 289 288 288 287 287 289 290 290 290 287 286 284 282 281 277 263 250 242 223 215 210 205 209 213 216 212 213 223 217 219
296 297 297 297 297 297 297 295 293 290 288 287 286 284 283 287 288 290 291 287 288 286 284 282 279 278 278 276 266 252 238 225 214 210 204 207 209 209 216 216 214 211 208
299 299 298 299 300 298 295 291 288 284 282 282 282 286 289 290 290 290 288 287 287 285 284 283 277 273 272 267 263 254 237 228 216 210 204 203 203 203 206 215 213 209 207
300 302 303 302 300 298 295 288 284 283 283 285 287 289 290 292 291 292 291 287 284 284 281 281 279 274 266 261 254 252 238 228 219 209 204 199 200 197 199 204 192 200 199
306 305 304 303 302 297 293 291 287 285 286 289 291 292 293 293 292 292 291 290 287 282 278 275 274 271 268 259 251 244 236 227 220 208 204 197 197 195 194 197 201 205 197
Height
5802 5799 5798 5797 5796 5794 5791 5787 5784 5782 5778 5773 5769 5764 5760 5756 5751 5747 5742 5737 5734 5731 5728 5725 5722 5719 5716 5713 5709 5705 5703 5700 5695 5692 5687 5683 5679 5676 5673 5670 5666 5664 5663
5797 5797 5795 5794 5793 5790 5787 5783 5781 5777 5773 5768 5764 5761 5756 5752 5747 5743 5737 5732 5728 5726 5723 5720 5716 5713 5710 5707 5704 5701 5697 5695 5691 5686 5683 5679 5676 5673 5670 5667 5665 5662 5661
5792 5792 5791 5790 5789 5785 5780 5777 5775 5773 5770 5763 5759 5755 5751 5747 5743 5738 5732 5727 5723 5720 5717 5713 5710 5707 5704 5701 5698 5695 5692 5689 5687 5683 5679 5676 5673 5670 5668 5665 5663 5661 5659
5788 5787 5786 5786 5782 5777 5773 5773 5771 5769 5764 5757 5754 5750 5746 5741 5736 5732 5727 5723 5718 5714 5711 5707 5703 5700 5697 5695 5693 5690 5687 5684 5681 5679 5676 5672 5669 5667 5664 5662 5660 5659 5657
5782 5782 5782 5780 5776 5771 5769 5767 5767 5762 5758 5751 5747 5743 5739 5734 5730 5726 5722 5718 5713 5709 5704 5701 5697 5693 5690 5688 5686 5683 5681 5678 5675 5674 5671 5669 5666 5663 5661 5659 5657 5656 5654
5780 5779 5777 5773 5769 5768 5764 5761 5759 5754 5752 5746 5742 5738 5735 5731 5725 5720 5716 5712 5707 5704 5699 5694 5690 5687 5683 5679 5678 5676 5674 5672 5669 5668 5666 5664 5661 5659 5657 5655 5653 5652 5651
5774 5773 5770 5764 5764 5762 5760 5756 5752 5750 5746 5741 5737 5733 5729 5724 5718 5713 5708 5705 5700 5696 5692 5688 5684 5680 5677 5672 5670 5668 5667 5665 5663 5661 5659 5658 5656 5654 5652 5651 5650 5648 5647
5768 5765 5762 5761 5759 5758 5753 5748 5744 5741 5737 5733 5728 5723 5719 5715 5711 5706 5700 5696 5693 5688 5684 5679 5678 5673 5669 5666 5663 5661 5659 5657 5657 5655 5653 5651 5651 5649 5647 5645 5644 5643 5641
5761 5759 5757 5754 5752 5749 5743 5738 5734 5731 5726 5721 5716 5712 5708 5704 5699 5695 5690 5686 5682 5679 5675 5670 5669 5665 5660 5658 5656 5653 5651 5650 5649 5647 5645 5645 5644 5643 5642 5640 5638 5637 5635
5753 5750 5748 5745 5740 5735 5730 5726 5722 5717 5712 5708 5705 5701 5697 5692 5688 5684 5680 5675 5671 5668 5663 5660 5656 5655 5651 5648 5646 5645 5643 5641 5641 5640 5638 5637 5637 5637 5637 5635 5634 5631 5630
5742 5739 5736 5732 5728 5722 5717 5713 5709 5704 5699 5694 5690 5686 5683 5679 5673 5669 5666 5663 5659 5655 5650 5647 5644 5642 5640 5637 5635 5633 5633 5632 5631 5631 5631 5629 5630 5630 5630 5629 5628 5626 5624
5730 5726 5722 5717 5712 5707 5703 5698 5693 5689 5685 5679 5674 5671 5667 5663 5658 5652 5648 5645 5643 5639 5636 5632 5630 5628 5625 5625 5623 5621 5621 5622 5621 5622 5623 5622 5621 5621 5622 5623 5622 5621 5619
5716 5712 5708 5702 5697 5692 5688 5683 5678 5673 5668 5661 5657 5652 5648 5642 5637 5634 5629 5626 5623 5621 5618 5616 5614 5611 5609 5609 5608 5607 5608 5608 5610 5611 5613 5613 5613 5613 5614 5615 5615 5615 5614
5703 5699 5694 5689 5684 5678 5672 5666 5662 5655 5649 5643 5638 5633 5627 5621 5616 5612 5608 5605 5602 5600 5597 5594 5593 5591 5592 5592 5591 5591 5593 5595 5597 5599 5601 5603 5604 5604 5606 5608 5609 5609 5608
5689 5684 5679 5673 5668 5662 5654 5648 5642 5634 5628 5623 5617 5611 5605 5600 5596 5591 5584 5581 5578 5574 5571 5570 5570 5570 5571 5572 5571 5573 5576 5579 5583 5586 5588 5591 5594 5595 5596 5599 5601 5602 5602
5675 5668 5661 5655 5649 5642 5635 5628 5621 5614 5608 5601 5595 5588 5582 5578 5572 5566 5559 5555 5551 5549 5544 5542 5542 5542 5542 5543 5545 5548 5553 5561 5566 5571 5576 5578 5582 5585 5586 5590 5593 5594 5595
5657 5649 5643 5636 5629 5622 5615 5608 5602 5593 5585 5579 5572 5563 5558 5552 5546 5539 5535 5529 5522 5519 5515 5512 5510 5511 5514 5517 5520 5524 5529 5536 5546 5554 5562 5567 5571 5574 5576 5581 5585 5587 5588
5637 5631 5624 5617 5609 5602 5594 5587 5579 5571 5564 5557 5548 5541 5533 5527 5520 5514 5511 5503 5495 5490 5486 5485 5483 5484 5487 5490 5493 5499 5507 5516 5526 5535 5546 5553 5558 5563 5568 5572 5576 5579 5581
5618 5610 5603 5597 5588 5579 5572 5564 5555 5548 5541 5533 5524 5516 5510 5503 5497 5492 5487 5481 5473 5468 5465 5463 5462 5463 5463 5465 5470 5477 5484 5495 5506 5516 5528 5539 5546 5553 5559 5562 5567 5571 5574
5597 5589 5581 5573 5566 5557 5549 5539 5532 5525 5516 5508 5501 5493 5488 5482 5477 5472 5468 5462 5458 5455 5452 5451 5449 5449 5449 5451 5453 5456 5464 5474 5487 5500 5512 5523 5533 5542 5549 5553 5558 5564 5567
5576 5567 5559 5551 5543 5534 5525 5516 5508 5500 5493 5485 5479 5473 5468 5464 5460 5458 5454 5450 5447 5444 5441 5440 5439 5438 5438 5439 5439 5443 5447 5457 5469 5482 5496 5509 5520 5530 5540 5543 5550 5555 5560
5551 5542 5534 5525 5517 5507 5498 5489 5482 5476 5470 5464 5460 5456 5453 5451 5448 5446 5444 5440 5437 5434 5432 5431 5430 5430 5429 5429 5430 5433 5436 5442 5453 5466 5481 5495 5507 5520 5529 5536 5542 5548 5553
5527 5519 5508 5498 5489 5481 5473 5466 5460 5455 5451 5448 5445 5443 5441 5438 5437 5435 5434 5432 5430 5427 5423 5423 5423 5422 5422 5422 5422 5424 5427 5432 5440 5452 5467 5481 5495 5508 5519 5527 5533 5540 5545
5502 5493 5483 5474 5465 5457 5451 5446 5442 5439 5437 5435 5434 5432 5430 5429 5426 5423 5423 5421 5419 5418 5416 5415 5414 5414 5414 5415 5416 5417 5419 5423 5429 5440 5454 5468 5482 5495 5507 5517 5525 5531 5538
5476 5468 5459 5450 5444 5439 5435 5432 5430 5428 5427 5426 5425 5423 5421 5418 5416 5415 5413 5412 5410 5409 5408 5407 5406 5406 5407 5408 5409 5411 5413 5416 5421 5429 5442 5456 5470 5483 5495 5507 5515 5523 5532
5456 5448 5442 5436 5431 5428 5425 5423 5422 5420 5419 5418 5416 5413 5411 5410 5407 5405 5403 5401 5401 5400 5400 5399 5398 5399 5399 5400 5402 5404 5407 5409 5413 5420 5431 5444 5458 5472 5484 5497 5507 5516 5525